Regional Weather Roundup
Issued by NWS Green Bay, WI

Home | Current Version | Previous Version | Graphics & Text | Print | Product List | Glossary Off
Versions: 1 2 3 4 5 6 7 8 9 10 11 12 13 14 15 16 17 18 19 20 21 22 23 24 25 26 27 28 29 30 31 32 33 34 35 36 37 38 39 40 41 42 43 44 45 46 47 48 49 50

000
ASUS43 KGRB 240710
RWRGRB

NORTH-CENTRAL AND NORTHEAST WISCONSIN REGIONAL WEATHER ROUNDUP
NATIONAL WEATHER SERVICE GREEN BAY WI
200 AM CDT THU APR 24 2014

WIZ005-009-010>012-018-019-240800-
NORTH CENTRAL WISCONSIN

CITY           SKY/WX    TMP DP  RH WIND       PRES   REMARKS
IRONWOOD       CLOUDY    45  25  45 S5        30.01F
MANITOWISH WTR LGT RAIN  38  27  63 S13G20    30.06R
ARBOR VITAE    LGT RAIN  37  31  77 S10       30.07R
EAGLE RIVER    CLOUDY    39  12  32 S5        30.06S
LAND O LAKES   CLOUDY    40  11  30 S6        30.07R
RHINELANDER    LGT SNOW  33  29  85 S8        30.09R FOG
PHILLIPS       LGT RAIN  34  33  95 E6        30.05S
ANTIGO         CLOUDY    37  22  54 S8        30.09S
TOMAHAWK       LGT RAIN  34  31  91 SE5       30.08R
MERRILL        LGT RAIN  34  30  85 E6        30.08S
$$

WIZ013-073-240800-
NORTHEAST WISCONSIN

CITY           SKY/WX    TMP DP  RH WIND       PRES   REMARKS
IRON MOUNTAIN  CLOUDY    37  19  48 CALM      30.09S
MARINETTE      CLOUDY    37  19  48 CALM      30.11R
OCONTO         CLOUDY    38  21  48 CALM      30.11S
$$

WIZ017-030-035>037-045-240800-
CENTRAL WISCONSIN

CITY           SKY/WX    TMP DP  RH WIND       PRES   REMARKS
MEDFORD        DRIZZLE   37  32  81 E8        30.04R
WAUSAU         LGT RAIN  40  15  36 SE6       30.07R
MOSINEE        CLOUDY    39   9  28 SE6       30.08S
MARSHFIELD     LGT RAIN  37  30  75 SE12      30.05F
WISC RAPIDS    LGT RAIN  36  31  82 E8        30.09S
STEVENS POINT  CLOUDY    39  14  35 SE6       30.09R
WAUPACA        CLOUDY    43  12  28 CALM      30.10R
SHAWANO        CLOUDY    43  19  38 SE3       30.11R
CLINTONVILLE   CLOUDY    41  18  38 CALM      30.10R
$$

WIZ038-039-048-051-240800-
FOX VALLEY

CITY           SKY/WX    TMP DP  RH WIND       PRES   REMARKS
NWS GREEN BAY  CLOUDY    41  21  44 E5        30.10S
APPLETON       CLOUDY    41  16  36 SE7       30.09S
OSHKOSH        CLOUDY    40  20  44 CALM      30.10R
FOND DU LAC    CLOUDY    41  14  33 CALM      30.09R
$$

WIZ022-050-052-240800-
EAST CENTRAL WISCONSIN

CITY           SKY/WX    TMP DP  RH WIND       PRES   REMARKS
STURGEON BAY   CLOUDY    39  18  41 E7        30.11S
MANITOWOC      CLOUDY    41  22  46 E5        30.11R
SHEBOYGAN      CLOUDY    38  23  55 NE3       30.10R
$$

LMZ563-521-522-541>543-240800-
LAKESHORE

STATION/POSITION TIME  TEMP    WIND        PRES    VSBY  WAVE
                       AIR SEA DIR/SP/G                  HT/PER
                 (UTC) (F)     (DEG/KT/KT) (MB)    (MI)  (FT/S)
SHEBOYGAN LKSHOR 0700   39      10/  7/  8 1020.1R
KEWAUNEE LKSHORE 0700   38      60/  2/  3 1020.1R
NORTHPORT PIER   0700   35      CALM  /  2 1019.6F
SISTER BAY LKSHO 0600   37        CALM       N/A
MENOMINEE LKSHOR 0700   34     350/  6/  7 1020.1R
$$



USA.gov is the U.S. government's official web portal to all federal, state and local government web resources and services.